Regional Weather Roundup
Issued by NWS Sioux Falls, SD

Home | Current Version | Previous Version | Text Only | Print | Product List | Glossary On
Versions: 1 2 3 4 5 6 7 8 9 10 11 12 13 14 15 16 17 18 19 20 21 22 23 24 25 26 27 28 29 30 31 32 33 34 35 36 37 38 39 40 41 42 43 44 45 46 47 48 49 50
000
ASUS43 KFSD 241510
RWRFSD

WEATHER ROUNDUP FOR SE SOUTH DAKOTA/SW MINNESOTA/NW IOWA
NATIONAL WEATHER SERVICE SIOUX FALLS SD
900 AM CST MON NOV 24 2014

NOTE: "FAIR" INDICATES FEW OR NO CLOUDS BELOW 12,000 FEET WITH NO
SIGNIFICANT WEATHER AND OR OBSTRUCTIONS TO VISIBILITY.


SDZ038>040-050-052>070-241600-
SOUTHEAST SOUTH DAKOTA

CITY           SKY/WX    TMP DP  RH WIND       PRES   REMARKS
CHAMBERLAIN    CLOUDY    20  14  78 NW17G26   29.79R WCI   5
HURON          MIX PCPN  18  11  74 NW23G37   29.73R WCI   0
MADISON        FLURRIES  16  14  93 NW24G30   29.64R WCI  -3
MITCHELL       CLOUDY    21  13  71 NW29G37   29.75R WCI   3
SIOUX FALLS    FLURRIES  19  12  74 NW21G31   29.64R WCI   3
WINNER         FAIR      22  15  75 NW21G28   29.80R WCI   6
YANKTON        CLOUDY   N/A N/A N/A NW29G37   29.71R
$$

MNZ071-072-080-081-089-090-097-098-241600-
SOUTHWEST MINNESOTA

CITY           SKY/WX    TMP DP  RH WIND       PRES   REMARKS
FAIRMONT       CLOUDY    18   9  68 NW29G36   29.50R WCI  -2
JACKSON        CLOUDY    19  12  73 NW30G38   29.52R WCI   0
LUVERNE        LGT SNOW  21  14  73 NW22G29   29.62R WCI   5
MARSHALL       CLOUDY    16   7  67 NW31G37   29.59R WCI  -5
MONTEVIDEO     LGT SNOW  14  10  85 N22G33    29.60R WCI  -4
PIPESTONE      LGT SNOW  18  12  79 NW23G33   29.59R WCI   0
REDWOOD FALLS  LGT SNOW  17  10  74 NW21G30   29.55R WCI   0
TRACY          CLOUDY    17  11  79 NW29G36   29.58R WCI  -3
WINDOM         FLURRIES  16  10  79 NW32G38   29.52R WCI  -5
WORTHINGTON    CLOUDY    18  10  73 NW26G33   29.56R WCI  -1
$$

IAZ001>003-012>014-020>022-031-032-NEZ013-014-SDZ071-241600-
NORTHWEST IOWA

CITY           SKY/WX    TMP DP  RH WIND       PRES   REMARKS
CHEROKEE       CLOUDY    22  15  76 NW16G25   29.61R WCI   8
DENISON        CLOUDY    23  14  68 NW21G31   29.60R WCI   8
ESTHERVILLE    CLOUDY    19  12  74 NW28G39   29.52R WCI   1
LE MARS        CLOUDY    23  16  74 NW24G31   29.65R WCI   7
ORANGE CITY    FLURRIES  21  16  79 NW30G36   29.60R WCI   3
SHELDON        FLURRIES  19  14  79 NW23G31   29.58R WCI   2
SIOUX CITY     CLOUDY    25  16  68 NW29G36   29.66R WCI   8
SPENCER        CLOUDY    21  12  68 NW25G32   29.56R WCI   4
STORM LAKE     FLURRIES  21  14  73 NW24G38   29.57R WCI   4
$$

ABBREVIATIONS USED IN REMARKS
   TC - TEMPERATURE IN CELSIUS
  WCI - WIND CHILL INDEX
   HX - HEAT INDEX
  VSB - VISIBILITY




USA.gov is the U.S. government's official web portal to all federal, state and local government web resources and services.